Temp
24 24 24 24 24 24 24 24 24 24 24 24 25 25 26 25 25 25 25 25 25 25 25 25 25 24 24 24 24 24 24 24 24 24 24 24 24 24 24 24 24 24
24 24 24 24 24 24 24 24 24 24 24 24 25 25 25 25 25 25 26 25 25 25 25 25 25 24 24 24 24 24 24 24 24 24 24 24 24 24 24 24 24 24
24 24 24 24 24 24 24 24 24 24 24 24 24 24 25 25 25 25 26 26 25 25 25 25 25 24 24 24 24 24 24 24 24 24 24 24 24 24 24 24 24 24
24 24 24 24 24 24 24 24 24 24 24 24 24 24 25 25 25 25 25 26 25 25 25 25 25 24 24 24 24 24 24 24 24 24 24 24 24 24 24 24 24 24
24 24 24 24 24 24 24 24 24 24 24 24 24 24 24 25 25 25 25 25 26 25 25 25 25 25 24 24 24 24 24 24 24 24 24 24 24 24 24 24 24 24
24 24 24 24 24 24 23 24 24 24 24 24 24 24 25 25 25 25 25 25 26 25 25 25 25 25 25 24 24 24 24 24 24 24 24 24 24 24 24 24 24 24
24 24 24 24 24 23 24 24 24 24 24 24 24 24 25 25 25 25 25 25 25 25 25 25 25 25 25 25 24 24 24 24 24 24 23 24 24 24 24 24 24 24
24 24 24 23 23 23 23 24 24 24 24 24 24 24 24 25 25 25 25 25 25 25 25 25 25 25 25 25 25 24 24 24 24 24 23 24 24 24 24 24 24 24
24 24 24 23 23 23 23 24 24 24 24 24 24 24 24 24 25 25 25 25 25 25 25 25 25 25 25 25 25 25 25 24 24 24 24 24 24 24 24 24 24 24
24 24 23 23 23 23 23 24 24 24 24 24 24 24 24 24 24 24 24 24 24 24 25 25 25 25 25 25 25 25 25 25 24 24 24 24 24 24 24 23 23 24
24 24 23 23 23 23 23 23 23 24 23 24 24 24 24 24 24 24 24 24 24 24 24 25 25 25 25 25 25 25 25 25 24 24 24 24 24 24 23 23 23 23
24 24 23 23 23 23 23 23 23 23 23 23 23 23 23 23 24 24 24 24 24 24 24 25 25 25 25 25 25 25 25 25 24 24 24 24 24 24 24 23 23 23
24 24 24 23 23 23 23 23 23 23 23 23 23 23 23 23 23 24 24 24 24 24 24 24 24 24 24 24 24 24 24 24 24 24 24 24 24 24 24 23 23 23
24 24 24 24 24 23 23 23 23 23 23 23 23 23 23 23 23 24 24 24 24 24 24 24 24 24 24 24 24 24 24 24 24 24 24 24 24 24 24 23 23 23
24 24 24 24 24 23 23 23 23 23 23 23 23 23 23 24 24 24 24 24 24 24 24 24 24 24 24 24 24 24 24 24 24 24 24 24 23 23 23 23 23 23
24 24 24 24 24 24 23 23 23 23 23 23 23 23 23 24 24 24 24 24 24 24 24 24 24 24 24 25 25 24 24 24 24 24 24 23 23 23 23 23 23 23
24 24 24 24 24 24 23 23 23 23 23 23 23 23 23 23 24 24 24 24 24 24 24 24 24 24 24 25 25 25 24 24 24 24 23 23 23 23 23 23 23 23
24 24 24 24 24 24 23 23 23 23 23 23 23 23 23 23 23 24 24 24 24 24 24 24 24 24 24 25 25 25 25 24 24 24 24 23 23 23 23 23 23 23
24 24 24 24 24 24 23 23 23 23 23 23 23 23 23 23 23 23 24 24 24 24 24 24 24 24 24 25 25 25 25 24 24 24 24 24 24 24 24 24 23 23
25 24 24 24 24 24 23 23 23 23 23 23 23 23 23 23 23 23 24 24 24 24 24 24 24 24 24 24 25 25 25 24 24 24 24 24 24 24 24 24 24 23
25 24 24 24 24 24 24 23 23 23 23 23 23 23 23 23 23 23 24 24 24 24 24 24 24 24 24 25 25 25 25 24 24 24 24 24 24 24 24 24 24 24
25 25 24 24 24 24 24 23 23 23 23 23 23 23 23 24 23 24 24 24 24 24 24 24 24 25 25 25 25 25 24 24 24 24 24 24 24 24 24 24 24 24
25 25 25 24 24 24 24 24 24 24 23 23 23 23 24 24 24 24 24 24 24 24 24 24 24 25 25 25 25 25 25 25 25 24 24 24 24 24 24 24 24 24
26 25 25 25 24 24 24 24 24 24 24 24 24 24 24 24 24 24 24 24 24 24 24 24 24 25 25 25 25 25 25 25 25 24 24 24 24 24 24 24 24 24
26 26 25 25 25 25 24 24 24 24 24 24 24 24 24 24 24 24 24 24 24 24 25 25 25 25 25 25 25 25 25 25 25 24 24 24 24 24 24 24 24 24
26 26 26 25 25 25 25 25 25 25 24 24 24 24 24 24 24 24 24 24 24 25 25 25 25 25 25 25 25 25 25 25 25 25 24 24 24 24 24 24 24 24
Height
798 800 802 804 807 809 811 814 816 818 820 821 822 824 825 827 829 832 833 834 835 836 837 839 840 841 843 844 846 847 848 849 850 851 851 852 853 853 854 854 854 855
795 798 800 803 805 807 809 812 814 816 818 819 821 822 824 826 828 830 831 833 834 835 836 837 838 840 841 842 844 845 846 847 848 849 850 850 851 852 852 853 853 854
793 795 798 800 802 804 806 809 812 814 816 818 819 821 823 824 826 828 830 831 832 833 834 836 837 838 839 841 842 843 844 845 846 847 848 849 849 850 850 851 851 852
790 793 795 797 799 802 804 807 810 812 814 816 817 819 821 823 825 826 828 829 830 832 833 834 835 836 838 839 840 841 842 843 844 845 846 847 848 848 849 850 850 850
788 790 792 795 797 800 802 804 806 809 811 814 815 818 819 821 823 824 826 828 828 830 831 832 833 834 836 837 838 839 840 841 842 843 844 845 846 846 847 848 848 848
785 788 790 793 795 798 800 801 804 806 809 811 814 816 817 819 821 822 824 825 826 828 829 830 831 832 833 835 836 837 838 839 840 841 842 843 844 845 845 846 846 846
782 785 788 791 794 796 798 799 802 803 806 809 811 813 815 817 818 820 821 823 824 825 826 828 829 830 831 832 834 835 835 837 838 839 840 840 842 842 843 844 844 844
779 782 785 788 791 794 795 797 799 801 803 806 808 810 812 814 816 817 819 820 822 823 824 825 827 828 829 830 831 832 833 834 836 837 838 838 839 840 840 841 842 842
776 779 782 785 788 790 792 794 796 798 801 803 805 807 809 811 813 815 817 818 819 821 822 823 825 826 827 828 829 830 831 832 833 834 835 835 836 837 837 839 839 840
774 776 779 782 784 787 789 792 794 796 798 800 802 805 807 809 811 813 815 816 817 819 820 821 822 823 824 825 826 827 828 829 830 831 832 832 833 834 835 836 837 837
771 774 776 779 781 784 786 789 792 794 796 798 800 802 804 806 808 810 812 813 814 816 817 818 819 820 822 823 824 825 826 827 828 829 829 830 830 831 832 833 834 834
768 771 773 776 778 781 784 786 789 791 793 795 797 799 801 803 805 807 809 810 811 813 814 815 816 818 819 820 821 823 824 825 825 826 827 827 828 829 830 831 832 832
764 767 769 772 775 778 781 784 786 788 790 792 794 796 798 800 802 804 805 807 808 810 811 812 814 815 817 818 819 820 821 822 823 823 824 824 825 826 827 828 829 829
759 763 766 769 772 775 778 780 783 785 787 789 791 793 795 796 798 800 802 804 805 807 808 810 812 813 814 815 816 817 818 819 820 821 821 822 822 823 825 825 826 826
757 760 763 767 770 772 775 777 779 782 784 786 788 789 791 793 795 797 799 801 802 804 806 808 809 810 810 811 812 813 815 816 817 818 818 819 820 821 822 823 823 824
755 759 761 764 767 768 771 773 776 779 781 783 784 785 787 789 792 794 796 797 799 801 803 804 806 806 806 807 808 810 811 813 814 815 816 817 818 819 819 820 820 821
752 755 758 761 763 765 767 770 773 775 777 779 781 782 784 786 788 790 792 794 795 797 799 800 801 801 802 803 805 806 808 810 811 812 814 814 815 816 816 817 818 818
748 751 754 757 759 761 764 766 770 772 774 776 777 779 781 783 784 786 788 790 792 793 795 796 796 796 798 800 801 803 805 807 809 810 811 811 812 813 813 814 815 815
744 747 750 753 755 758 761 763 766 768 770 772 774 776 779 780 781 782 784 786 788 790 791 792 792 793 795 796 798 799 802 804 806 807 808 808 809 810 810 811 811 812
740 743 746 749 751 754 757 760 762 763 766 769 772 774 775 776 777 779 780 782 784 785 787 788 788 789 791 793 794 796 799 801 803 804 805 806 806 807 807 807 807 808
736 739 742 745 748 751 753 755 757 759 762 765 767 769 770 771 773 775 776 778 780 782 783 784 784 785 788 790 791 793 796 799 801 801 802 802 803 803 803 803 804 805
731 735 738 740 743 746 749 751 753 754 757 760 763 765 766 768 769 770 772 774 776 778 780 780 780 782 784 786 788 791 794 796 797 798 798 799 799 799 800 800 800 801
727 730 733 736 739 742 744 746 748 750 753 756 758 760 762 763 764 766 768 770 772 774 776 775 775 778 781 783 785 789 791 793 793 794 794 795 795 795 796 796 797 798
723 726 728 731 734 737 739 741 743 746 748 751 753 755 756 758 760 762 764 767 768 770 771 771 772 775 777 779 781 785 787 788 789 790 790 791 791 791 792 792 793 794
719 721 724 727 729 732 734 736 739 741 743 746 748 749 751 753 756 758 760 762 764 765 767 768 769 771 773 775 777 780 782 783 785 786 786 787 787 787 788 788 789 790
715 717 720 722 725 727 729 732 734 736 739 742 743 745 748 750 752 754 756 757 760 762 763 764 765 766 769 771 773 776 777 779 781 781 781 782 783 783 783 784 785 785
Wind_Speed
40 38 38 37 37 36 35 35 34 34 34 34 34 34 33 32 31 29 27 25 24 23 23 24 23 22 22 21 20 19 19 20 20 19 18 19 19 18 18 18 19 17
39 38 37 36 36 35 35 35 35 34 34 35 36 36 34 32 31 30 28 27 26 24 24 24 24 23 22 22 22 21 20 20 21 20 19 19 20 19 18 18 20 19
39 38 38 37 37 36 36 35 35 35 34 34 35 35 34 33 32 31 30 28 27 26 24 24 24 24 23 22 22 22 22 21 21 21 21 20 20 20 19 17 18 21
39 39 39 38 38 37 36 35 34 35 34 34 34 34 34 33 33 32 31 30 29 28 26 25 25 25 25 24 23 23 24 23 22 21 21 22 22 21 20 18 18 20
40 39 39 39 38 37 35 35 35 35 35 35 34 34 33 33 32 32 32 31 31 30 28 27 26 26 26 25 25 24 24 25 24 23 23 24 23 22 21 20 20 20
39 39 39 38 37 36 35 35 36 36 36 35 34 34 34 33 32 32 32 32 32 32 31 30 28 28 27 27 27 26 26 26 26 25 25 25 25 24 23 22 22 22
39 39 38 38 36 35 36 36 35 35 35 35 34 35 34 34 33 33 33 33 33 33 33 32 31 29 29 28 28 28 27 27 27 27 27 27 27 26 26 25 25 25
39 39 39 38 36 35 36 36 35 35 35 34 34 35 35 35 35 35 34 34 34 35 34 34 33 31 30 30 30 30 29 29 28 28 29 29 29 29 29 28 28 28
39 39 39 38 37 37 37 37 36 36 35 35 35 35 34 35 35 35 35 34 34 35 35 35 35 33 32 31 31 31 31 31 30 30 30 31 31 31 31 31 30 31
38 38 38 38 38 38 38 37 37 35 35 35 35 34 33 34 35 35 34 34 34 34 35 36 36 36 35 34 33 33 32 32 32 32 32 32 33 33 33 32 32 33
37 37 37 38 38 38 38 37 36 35 34 34 34 33 33 34 34 34 34 34 35 35 36 36 37 37 37 36 35 34 34 34 33 33 34 34 34 34 34 33 33 34
37 37 37 38 38 37 37 36 36 35 35 34 34 34 33 33 33 34 34 35 36 36 37 37 38 37 37 37 36 35 35 35 34 34 35 35 35 35 34 34 34 35
38 38 38 38 38 37 37 36 36 35 35 35 34 34 34 33 33 33 34 35 36 36 37 38 37 37 37 37 36 36 36 36 35 35 36 36 36 36 35 35 35 36
40 40 40 39 38 37 37 36 36 36 36 35 34 34 34 34 34 34 34 35 35 36 36 36 35 35 36 36 37 37 36 36 37 37 36 36 36 36 35 35 35 36
39 38 38 37 36 36 37 37 37 36 36 36 36 35 35 35 35 34 34 35 35 36 36 35 35 36 37 38 38 38 37 37 37 37 37 36 36 35 35 35 35 35
35 35 35 35 36 37 38 37 37 36 36 36 37 37 36 36 35 34 34 35 36 36 36 35 36 38 40 41 41 40 38 37 36 37 37 36 35 34 34 34 35 35
35 35 35 36 37 38 37 37 36 36 36 36 36 37 36 36 35 35 35 36 36 36 36 36 38 41 42 42 42 42 40 38 36 36 36 35 35 35 34 34 34 34
36 36 36 37 38 38 37 37 36 36 36 36 36 36 36 35 35 35 36 36 35 36 36 37 39 42 43 43 43 43 42 40 38 36 35 35 36 36 36 35 34 34
37 36 36 37 37 37 37 36 35 36 36 36 35 35 34 34 35 35 36 36 36 36 36 38 40 42 42 43 43 43 43 42 40 37 35 35 36 36 36 37 36 35
37 36 36 37 37 37 36 35 36 36 37 36 34 33 34 34 35 35 36 36 36 37 37 38 40 41 41 42 43 43 42 41 41 40 38 37 36 36 37 37 37 37
36 36 36 37 37 36 36 36 37 37 37 36 35 35 35 36 35 35 36 36 37 38 37 38 40 41 40 41 42 42 41 40 40 41 40 39 38 37 38 39 38 37
36 36 36 36 36 36 36 36 37 37 37 36 35 35 36 35 35 35 36 36 37 37 37 38 41 41 40 40 40 39 38 38 39 40 41 40 40 39 39 39 39 37
37 37 37 37 36 36 36 37 37 37 37 36 35 35 35 35 36 36 36 35 36 36 37 39 41 40 38 39 38 35 35 36 38 40 40 40 41 41 40 40 39 39
38 38 38 37 36 36 37 38 38 37 37 37 36 36 36 37 36 35 35 34 35 36 38 39 40 38 37 37 36 34 34 36 38 39 39 39 40 41 41 41 40 40
38 39 39 38 37 37 38 38 38 38 37 37 37 37 37 37 35 34 34 34 35 36 37 38 39 37 36 37 35 34 34 35 36 37 37 37 38 39 40 40 39 39
38 39 39 38 37 38 39 39 39 37 36 36 36 36 35 34 33 33 33 34 34 34 35 37 38 37 36 36 35 34 34 34 34 36 36 36 37 37 37 37 37 38
Wind_Direction
206 206 207 209 210 212 214 215 216 217 219 218 218 220 221 220 220 221 225 228 230 232 230 227 224 224 226 227 228 230 232 233 233 236 238 235 234 234 238 239 234 234
206 207 208 209 211 213 214 216 217 218 220 220 220 221 222 221 220 220 225 229 231 232 231 228 226 226 228 229 228 229 232 235 235 237 238 236 235 238 244 243 235 234
206 207 207 209 211 212 213 215 217 219 221 221 222 222 222 223 222 221 224 229 232 233 232 231 229 229 231 231 232 231 232 235 236 237 238 238 239 243 249 249 239 235
206 207 208 210 211 212 213 213 216 218 220 222 223 223 223 224 224 223 224 228 232 234 233 232 232 232 233 234 235 235 236 237 238 238 239 240 242 246 251 252 246 239
206 207 209 210 212 212 212 212 214 216 218 221 223 223 224 225 225 224 225 227 231 234 234 234 233 233 234 236 237 238 239 239 239 239 240 241 243 247 249 251 251 247
207 208 209 210 211 211 211 213 215 215 217 220 221 223 225 225 226 226 226 227 230 233 233 234 234 234 235 236 237 239 240 241 240 240 242 243 243 245 248 249 251 252
206 208 209 211 211 212 213 214 215 215 217 219 220 223 224 225 227 228 228 229 230 232 233 233 234 235 235 236 237 239 241 242 242 241 242 244 244 244 246 247 248 251
206 208 209 210 211 212 214 215 215 216 217 217 219 222 224 225 227 229 229 229 229 231 232 233 234 235 235 235 236 238 240 241 241 240 241 242 243 244 246 246 247 249
206 207 208 209 210 212 214 215 216 217 217 218 220 222 223 226 228 229 230 229 229 229 231 232 233 235 235 235 236 237 239 240 240 240 241 241 241 244 245 246 246 248
206 207 208 209 210 212 214 216 217 217 217 219 221 222 224 226 228 229 230 230 229 229 229 231 232 233 234 235 236 237 238 239 240 240 241 241 242 244 245 245 245 247
206 207 208 208 210 212 214 216 217 218 218 220 221 222 224 226 228 229 229 229 229 229 229 230 231 232 232 234 236 237 238 239 240 240 241 242 244 245 245 245 245 247
206 207 208 209 210 212 214 216 217 217 218 219 221 222 224 225 226 227 228 228 230 231 230 231 231 231 231 233 235 236 238 239 240 240 242 244 245 246 247 247 246 248
205 207 209 210 211 212 214 216 216 217 218 219 220 221 222 224 225 226 228 229 230 231 231 232 231 231 231 233 234 235 237 238 239 240 241 243 245 247 247 248 248 249
206 208 209 210 211 212 214 216 217 217 218 219 220 221 222 224 225 227 228 229 230 231 232 232 231 232 233 233 234 235 236 237 238 239 240 242 244 246 247 247 249 250
207 208 209 209 210 212 214 215 217 218 218 219 220 220 222 223 225 227 229 230 231 232 232 232 232 233 235 235 236 235 235 236 237 238 240 241 243 245 246 247 249 250
207 208 208 209 210 212 214 215 216 217 218 219 220 221 222 223 224 226 227 230 232 233 233 233 233 235 237 237 238 237 236 236 236 238 239 241 243 244 246 248 249 250
207 208 208 210 211 213 214 215 216 217 219 220 221 221 222 222 223 224 226 229 231 232 233 233 234 236 238 239 240 239 238 236 236 238 239 241 243 244 246 248 249 251
206 207 208 210 212 213 214 215 216 217 219 220 221 222 222 222 223 224 226 228 230 232 233 233 235 237 238 239 240 240 239 238 237 238 239 241 243 244 247 248 249 251
205 206 207 209 212 213 214 215 215 217 219 220 221 222 222 223 224 225 227 228 229 231 233 234 237 239 239 240 241 241 241 239 238 238 240 242 243 245 247 249 250 251
204 205 207 209 211 212 213 213 215 217 219 220 222 222 223 224 224 225 227 228 229 231 233 236 238 240 240 240 241 242 241 240 240 239 240 242 244 246 247 249 250 251
203 205 207 209 211 211 212 213 214 217 218 219 220 221 223 224 224 225 227 229 230 232 234 237 239 241 241 242 243 243 242 241 241 241 242 243 245 247 248 250 251 251
203 204 206 208 209 209 211 213 214 216 217 217 219 221 223 225 225 226 227 228 230 232 234 238 241 242 242 243 244 244 243 242 242 242 243 244 246 247 249 251 252 252
204 204 206 207 208 208 210 213 215 216 217 217 217 219 222 224 225 226 227 228 230 232 234 238 241 242 243 244 245 244 242 242 242 242 242 244 247 249 250 252 253 253
205 206 206 207 207 207 210 213 215 216 217 216 217 218 221 223 224 226 228 228 230 231 234 237 241 243 243 244 245 244 242 242 242 241 241 243 246 249 251 252 254 255
206 207 207 207 207 208 211 213 215 216 217 217 217 219 221 223 223 225 227 228 230 232 234 238 241 243 244 244 244 243 242 243 241 239 239 242 245 248 251 252 254 255
207 207 208 209 209 210 213 214 215 216 216 216 217 219 221 223 223 224 226 228 230 231 233 237 240 242 243 244 244 243 243 243 241 238 238 241 244 247 250 252 254 255